Regional Weather Roundup
Issued by NWS

Home | Current Version | Previous Version | Graphics & Text | Print | Product List | Glossary On
Versions: 1 2 3 4 5 6 7 8 9 10 11 12 13 14 15 16 17 18 19 20 21 22 23 24 25 26 27 28 29 30 31 32 33 34 35 36 37 38 39 40 41 42 43 44 45 46 47 48 49 50
000
ASUS43 KIND 241609
RWRIN

WEATHER ROUNDUP FOR INDIANA
NATIONAL WEATHER SERVICE INDIANAPOLIS IN
1100 AM EST SAT FEB 24 2018

NOTE: "FAIR" INDICATES FEW OR NO CLOUDS BELOW 12,000 FEET WITH NO
SIGNIFICANT WEATHER AND/OR OBSTRUCTIONS TO VISIBILITY.

* - STATION DOES NOT REPORT WEATHER SUCH AS PRECIPITATION OR FOG.

+ - STATION NOT QUALITY CONTROLLED BY THE NATIONAL WEATHER SERVICE.
    USE DATA WITH CAUTION...ESPECIALLY DEWPOINT AND RELATIVE
    HUMIDITY OBSERVATIONS.

INZ001>003-010>013-019-020-241700-
NORTHWEST INDIANA

CITY           SKY/WX    TMP DP  RH WIND       PRES   REMARKS
GARY /AIRPORT/ CLOUDY    37  34  87 NE13      30.14F WCI  29
LA PORTE +     CLOUDY    38  34  86 E12       30.14F WCI  30
MICHIGAN CITY+ CLOUDY    37  32  81 E6        30.15F WCI  33
MONTICELLO +   CLOUDY    39  37  95 E9        30.11S FOG     WCI  32
RENSSELAER +   CLOUDY    37  34  87 E12       30.12F FOG     WCI  30
VALPARAISO     CLOUDY    41  35  79 E14       30.13F

$$

LMZ046-743>745-241700-
SOUTHERN LAKE MICHIGAN

STATION/POSITION TIME  TEMP    WIND        PRES    WAVE
                       AIR SEA DIR/SP/G            HT
                 (UTC) (F)     (DEG/KT/KT) (MB)    (FT)
BURNS HARBOR     1540   37     100/  9/ 12 1021.3F
MICHIGAN CITY    1540   37     100/ 11/ 14   N/A

$$

INZ004-005-014>016-021>024-241700-
NORTH CENTRAL INDIANA

CITY           SKY/WX    TMP DP  RH WIND       PRES   REMARKS
ELKHART        CLOUDY    37  32  81 E15       30.16F WCI  28
GOSHEN         CLOUDY    38  34  85 E12       30.15F WCI  30
LOGANSPORT +   CLOUDY    37  37 100 E15       30.13F FOG     WCI  28
PERU/GRISSOM   CLOUDY    39  39 100 E13       30.12S WCI  32
ROCHESTER +    CLOUDY    41  37  87 E13       30.14F FOG
SOUTH BEND     CLOUDY    38  32  79 E9        30.16F WCI  31
WARSAW +       CLOUDY    36  36 100 MISG      30.12F FOG

$$

INZ006>009-017-018-025>027-241700-
NORTHEAST INDIANA

CITY           SKY/WX    TMP DP  RH WIND       PRES   REMARKS
AUBURN +       DRIZZLE   36  36 100 E8        30.19S WCI  29
FORT WAYNE     LGT RAIN  39  37  92 NE13      30.16F FOG     WCI  31
HUNTINGTON +   LGT RAIN  37  36  95 E7        30.15S WCI  32
KENDALLVILLE + CLOUDY    37  35  93 E9        30.16F WCI  30

$$

INZ028-029-035-036-043>045-051>053-241700-
WEST CENTRAL INDIANA

CITY           SKY/WX    TMP DP  RH WIND       PRES   REMARKS
CRAWFORDSVL +  CLOUDY    40  40 100 NE8         N/A  WCI  35
GREENCASTLE +  LGT RAIN  43  43 100 SE13      30.05F
LAFAYETTE      CLOUDY    40  40 100 E12       30.10F FOG     WCI  33
TERRE HAUTE    LGT RAIN  46  45  96 VRB6      30.04F

$$

INZ030>032-037>040-046>048-054>057-064-065-241700-
CENTRAL INDIANA

CITY           SKY/WX    TMP DP  RH WIND       PRES   REMARKS
FISHERS *+     CLOUDY    41  41 100 E8        30.09
GREENWOOD *+   CLOUDY    43 -46   2 E13       30.07F
INDIANAPOLIS   LGT RAIN  44  44 100 E13       30.06F FOG
-EAGLE CREEK   LGT RAIN  44  42  93 E8        30.06F
KOKOMO +       LGT RAIN  40  39  97 E14       30.12F WCI  32
MARION +       LGT RAIN  38  38 100 E6        30.14S WCI  34
MT COMFORT *+  CLOUDY    43  43 100 E12       30.08F
SHELBYVILLE    LGT RAIN  47  43  86 E9        30.09F
ZIONSVILLE +   RAIN      41  41 100 E10       30.08F

$$

INZ033-034-041-042-049-050-058-059-241700-
EAST CENTRAL INDIANA

CITY           SKY/WX    TMP DP  RH WIND       PRES   REMARKS
MUNCIE         LGT RAIN  44  41  89 E10       30.10F FOG
RICHMOND +     LGT RAIN  43  43 100 E12       30.12F

$$

INZ060-061-067>069-081>083-085>088-241700-
SOUTHWEST INDIANA

CITY           SKY/WX    TMP DP  RH WIND       PRES   REMARKS
EVANSVILLE     LGT RAIN  50  50 100 NE12      30.03F FOG
HUNTINGBURG +  LGT RAIN  50  49  96 E14       30.03F
WASHINGTON +   DRIZZLE   49  47  94 E9        30.03F

$$

INZ062-063-066-070>080-084-089>092-241700-
SOUTH CENTRAL AND SOUTHEAST INDIANA

CITY           SKY/WX    TMP DP  RH WIND       PRES   REMARKS
BATESVILLE +   MOSUNNY   45  45 100 MISG      30.08F FOG
BEDFORD +      LGT RAIN  48  46  93 E9        30.05F
BLOOMINGTON    CLOUDY    47  46  97 SE10      30.06R
FRENCH LICK *+ CLOUDY    46 N/A N/A E7        30.05F
MADISON *+     CLOUDY    48  46  93 E7        30.09F
NORTH VERNON + LGT RAIN  46  45  93 E13       30.09F
SEYMOUR +      LGT RAIN  50  48  93 E10       30.06F

$$




USA.gov is the U.S. government's official web portal to all federal, state and local government web resources and services.